Simultaneous Nadir Overpasses (SNOs) Predictions

Prediction of SNOs between NOAA-19 and TERRA Satellite Orbit:

Table of predicted SNOs for the next 14.0 days since TLE Epoch: 10/5/2024
Index Date (NOAA-19) Time (NOAA-19) Lat,Lon (NOAA-19) SZA (NOAA-19 ) Date (TERRA) Time (TERRA) Lat,Lon (TERRA) SZA (TERRA ) Distance(km) Time Diff (sec)
1 10/05/2024 21:17:14 -70.48, 28.94 104.22 10/05/2024 21:17:48 -70.47, 28.90 104.24 1.95 34
2 10/05/2024 22:07:37 72.02,-160.97 77.22 10/05/2024 22:06:38 72.02,-160.99 77.22 0.93 59
3 10/08/2024 00:16:21 -69.18, -17.70 104.59 10/08/2024 00:17:24 -69.19, -17.67 104.60 1.73 63
4 10/08/2024 01:06:37 71.13, 152.72 77.20 10/08/2024 01:06:07 71.13, 152.73 77.20 0.88 30
5 10/10/2024 04:05:36 70.24, 106.59 77.18 10/10/2024 04:05:34 70.24, 106.59 77.18 0.20 2
6 10/12/2024 07:04:32 69.48, 60.77 77.27 10/12/2024 07:04:57 69.46, 60.71 77.26 2.83 25
7 10/12/2024 07:55:04 -71.09,-129.35 101.24 10/12/2024 07:53:50 -71.11,-129.30 101.22 2.33 74
8 10/14/2024 10:03:34 68.36, 14.56 77.05 10/14/2024 10:04:24 68.35, 14.51 77.02 2.48 50
9 10/14/2024 10:53:59 -70.33,-175.27 101.16 10/14/2024 10:53:11 -70.34,-175.26 101.15 0.50 48
10 10/16/2024 13:02:43 66.82, -31.99 76.45 10/16/2024 13:03:56 66.83, -31.97 76.42 1.05 73
11 10/16/2024 13:53:00 -69.22, 138.40 101.40 10/16/2024 13:52:36 -69.23, 138.45 101.39 2.37 24



Historial Predications of SNOs between NOAA-19 and TERRA
